Regional Weather Roundup
Issued by NWS Wilmington, NC

Home | Current Version | Previous Version | Text Only | Print | Product List | Glossary On
Versions: 1 2 3 4 5 6 7 8 9 10 11 12 13 14 15 16 17 18 19 20 21 22 23 24 25 26 27
000
ASUS42 KILM 271113
RWRILM
RWRILM
REGIONAL HOURLY WEATHER ROUNDUP
NATIONAL WEATHER SERVICE WILMINGTON NC
700 AM EDT WED JUL 27 2016

NOTE: "FAIR" INDICATES FEW OR NO CLOUDS BELOW 12,000 FEET WITH NO
SIGNIFICANT WEATHER AND/OR OBSTRUCTIONS TO VISIBILITY.

...............WFO WILMINGTON COUNTY WARNING AREA...............

......COASTAL NC AND SC COUNTIES......

CITY           SKY/WX    TMP DP  RH WIND       PRES   REMARKS
WILMINGTON     MOCLDY    81  74  79 SW12      29.99S
N MYRTLE BEACH CLEAR     80  75  84 W6        30.00S
MYRTLE BEACH   PTCLDY    79  70  73 W9        30.03R

......INLAND NC AND SC COUNTIES.......

CITY           SKY/WX    TMP DP  RH WIND       PRES   REMARKS
LUMBERTON      CLEAR     77  74  90 SW6       29.98S
ELIZABETHTOWN  CLEAR     78  75  90 SW5       29.99S
WHITEVILLE     CLEAR     78  74  86 SW3       29.99R
FLORENCE       CLEAR     79  74  84 SW8       30.01R
DARLINGTON     CLEAR     76  74  93 SW6       30.00S
KINGSTREE      FAIR      73  72  94 CALM      30.02R
HARTSVILLE     FAIR      73  72  94 CALM      30.00S
BENNETTSVILLE  FAIR      79  75  89 S3        29.99S
CONWAY         FAIR      75  73  94 SW3       30.01S
GEORGETOWN     FAIR      77  73  88 W7        30.03S
MARION           N/A     75  72  88 SW3       30.01R

....................REST OF NORTH CAROLINA......................

.........EASTERN NC.........

CITY           SKY/WX    TMP DP  RH WIND       PRES   REMARKS
CAPE HATTERAS  CLOUDY    82  77  84 SW8       29.96R HX  90
JACKSONVILLE   PTCLDY    76  75  97 SW3       29.99R
MOREHEAD CITY  PTCLDY    82  76  81 W13       29.97S
KENANSVILLE    NOT AVBL
NEW BERN       PTCLDY    77  74  90 SW6       29.98S
ELIZABETH CITY PTCLDY    76  74  93 CALM      29.95R

.........CENTRAL NC.........

CITY           SKY/WX    TMP DP  RH WIND       PRES   REMARKS
RALEIGH DURHAM MOCLDY    76  75  97 CALM      29.98R
ROCKY MOUNT    PTCLDY    77  77 100 S3        29.96R
ROANOKE RAPIDS NOT AVBL
FAYETTEVILLE   CLEAR     80  73  79 SW7       29.98R
HOFFMAN        PTCLDY    77  71  82 SW5       29.99R

.........WESTERN NC.........

CITY           SKY/WX    TMP DP  RH WIND       PRES   REMARKS
CHARLOTTE      PTCLDY    78  68  71 SW5       30.02R
GREENSBORO     CLOUDY    77  75  93 NE3       30.01R
HICKORY        NOT AVBL
BOONE          NOT AVBL
ASHEVILLE      NOT AVBL

.....................REST OF SOUTH CAROLINA.....................

.........EASTERN SC.........

CITY           SKY/WX    TMP DP  RH WIND       PRES   REMARKS
CHARLESTON     PTCLDY    79  73  82 W6        30.03R
BEAUFORT MCAS  PTCLDY    78  73  84 SW6       30.05R
HILTON HEAD    CLEAR     79  72  78 SW6       30.06R

.........CENTRAL SC.........

CITY           SKY/WX    TMP DP  RH WIND       PRES   REMARKS
COLUMBIA       CLEAR     78  71  79 SW5       30.02R
ORANGEBURG     CLEAR     75  73  93 SW5       30.03
SUMTER SHAW    CLEAR     78  73  83 SW7       30.00R HAZE

.........WESTERN SC.........

CITY           SKY/WX    TMP DP  RH WIND       PRES   REMARKS
GREENVILLE     NOT AVBL
ROCK HILL      CLEAR     76  69  79 SW5       30.03R
ANDERSON       CLEAR     76  70  82 S6        30.04R
CLEMSON        NOT AVBL
GREENWOOD      CLEAR     75  70  84 SW5       30.05R


...................COASTAL AND OFFSHORE REPORTS..................

................LOCAL PIERS AND NC RESERVE................


STATION/POSITION TIME  SKY/WX   TEMP    WIND        PRES    VSBY
                                AIR SEA DIR/SP/G
                 (UTC)          (F)     (DEG/KT/KT) (MB)    (MI)
JOHNY MRCER PIER 1000            81 80  250/ 10/ 12 1014.4R
NC RESRV MASNBRO NOT AVBL
OCEAN CREST PIER NOT AVBL
SPRINGMAID  PIER 1000            80 84              1015.6R


................COASTAL AND OFFSHORE BUOYS................


STATION/POSITION TIME  SKY/WX   TEMP    WIND        PRES    VSBY
                                AIR SEA DIR/SP/G
                 (UTC)          (F)     (DEG/KT/KT) (MB)    (MI)
DIMNDSHOAL 41025 1050            84 84  250/ 16/ 19 1014.5R
WVE H/P(F/S)=  4/ 6

CAPE LOOKOUT     1100            83     250/ 14/ 20 1014.8R
ONSLOW BAY 41036 NOT AVBL
ONSLOW BAY 41064 1008            84 84  240/ 17/ 23 1015.2R
ONSLOW BAY 41159 1055               84                N/A
WVE H/P(F/S)=  4/ 5

5SE WRITBC 41038 1008            81 80  250/ 10/ 14 1016.4R
MASNBO INL 41110 1006               80                N/A
WVE H/P(F/S)=  2/ 5

WILM HARBR 41108 NOT AVBL
27SE WRITB 41037 1008            84 84  240/ 16/ 19 1015.8R
FRYING PAN 41013 1000            84 85  240/ 17/ 23 1016.0R
SUNST NRSH 41024 1008            83 84  260/ 14/ 17 1015.2R
CAPRS NRSH 41029 1008            83 82  270/ 12/ 16 1016.5R
EDISTO     41004 1050            85 86  260/ 14/ 17 1016.4R
WVE H/P(F/S)=  4/ 5 SWL H/P/D(F/S/D)=  2/140/ 8



..........OFFSHORE BUOYS BEYOND 100 NM OFFSHORE...........
.....IN A TRIANGLE---HAT TO BERMUDA TO BAHAMAS TO HAT.....


STATION/POSITION TIME  SKY/WX   TEMP    WIND        PRES    VSBY
                                AIR SEA DIR/SP/G
                 (UTC)          (F)     (DEG/KT/KT) (MB)    (MI)
150E HAT   41001 NOT AVBL
W BERMUDA  41048 1050            84 84  290/ 16/ 17 1016.5R
WVE H/P(F/S)=  4/ 5 SWL H/P/D(F/S/D)=  2/130/ 8

ATLANTIC S 41049 1050            82 85  320/  6/  8 1018.6R
WVE H/P(F/S)=  3/ 8 SWL H/P/D(F/S/D)=  3/110/ 8

E BAHAMAS  41046 1000            83 85   80/ 12/ 16 1017.5R
NE BAHAMAS 41047 1000            83 85  170/  2/  4 1018.9R
120E CANVRL41010 1020            84 86  210/  6/  8 1018.7R

END




USA.gov is the U.S. government's official web portal to all federal, state and local government web resources and services.